Temp
66 65 64 64 64 63 63 63 63 62 60 60 60 60 58 56 53 50 49 51 53 55 60 57 57 60 62 63 63 64 64 67 70 68 68 68 67 69 70 71 71 71 71 71 71 71 71 71 71 72 72 73 73 74 74 74 75 75 76 76 76 76 76 76 76 76 76 76 76 76 77 78 78 78
66 66 65 64 63 64 63 63 63 62 61 60 60 60 61 59 55 53 51 53 55 55 57 59 58 60 63 63 64 64 64 68 69 67 67 67 68 70 70 70 70 71 71 70 69 70 70 70 71 71 72 72 73 73 73 73 74 74 74 75 75 75 75 75 75 75 75 75 75 75 76 76 76 77
66 65 64 64 64 64 63 62 62 62 61 61 60 60 60 60 58 57 56 53 56 58 55 57 61 62 62 63 63 64 64 66 69 67 67 67 69 71 70 70 70 70 70 70 69 69 69 69 70 70 71 71 71 72 72 73 73 73 74 74 74 74 74 74 74 75 75 75 75 75 75 75 76 76
66 65 64 64 64 64 64 62 61 60 61 61 59 59 59 59 58 59 57 55 55 58 57 59 61 62 62 63 62 63 64 66 69 66 66 67 70 68 68 70 70 70 70 70 69 69 69 68 69 70 70 70 71 71 72 72 72 73 73 73 73 73 73 73 74 74 74 74 74 75 75 75 75 76
65 65 65 64 64 64 62 62 61 61 61 62 61 60 59 58 58 58 57 55 55 59 59 59 60 62 62 61 62 62 63 64 65 67 66 66 66 67 67 68 70 69 69 69 69 69 68 68 68 69 69 70 70 71 71 71 71 71 72 72 72 72 72 72 73 73 74 74 74 74 74 74 75 76
65 65 64 64 63 63 63 62 62 62 61 60 59 59 59 58 57 58 57 57 56 55 59 59 60 60 61 59 63 61 62 63 64 64 65 66 66 66 67 67 68 69 69 69 69 69 68 68 68 68 69 69 69 70 70 70 69 70 71 71 71 71 71 71 72 72 72 73 74 74 74 74 74 75
64 63 64 64 64 62 61 61 62 62 61 61 59 59 59 58 58 58 58 57 55 56 57 59 58 59 60 60 61 63 63 63 64 63 64 65 66 67 67 67 68 69 69 69 69 68 68 68 68 68 67 68 68 68 68 68 69 69 69 69 69 70 70 70 70 71 72 72 73 73 73 73 74 74
63 63 62 63 63 62 61 61 61 61 61 60 59 59 58 58 58 59 58 58 57 57 55 57 57 60 59 61 62 63 63 63 63 63 64 65 65 65 66 66 66 68 68 68 68 68 68 68 67 67 67 66 66 67 67 67 67 67 68 68 68 67 68 67 68 69 69 70 71 72 72 73 73 73
64 63 63 63 63 62 61 61 60 61 60 60 59 59 59 58 59 60 59 58 58 57 56 57 59 60 60 61 62 62 61 62 62 63 63 63 64 64 65 66 67 68 68 68 68 68 68 68 67 67 67 66 66 66 66 66 66 66 66 65 65 66 66 66 66 67 68 68 68 69 71 72 72 72
63 63 63 63 63 62 61 62 62 61 60 60 59 59 59 59 59 58 58 58 57 57 57 57 57 60 59 59 60 62 62 60 60 61 62 62 62 62 62 64 66 67 67 67 68 69 69 68 67 67 67 66 66 65 65 65 65 64 63 62 63 65 64 64 64 65 65 66 66 67 69 71 71 72
63 63 63 64 63 63 62 62 62 61 60 60 60 60 60 61 59 58 58 58 57 57 57 58 59 59 60 59 58 61 62 61 60 58 57 58 60 61 61 61 64 66 66 67 68 68 69 69 69 67 66 66 66 65 64 64 63 62 62 61 60 60 61 62 62 63 64 65 65 65 66 66 69 71
63 63 63 64 64 63 63 62 62 61 61 61 60 60 60 60 59 58 58 57 57 56 57 57 58 58 58 58 59 61 59 57 58 58 58 56 57 59 60 61 61 63 64 63 65 67 68 68 68 67 67 66 65 64 64 65 65 63 62 61 63 62 60 61 61 61 62 62 63 64 65 65 66 68
62 62 63 63 64 65 66 64 63 63 62 62 60 60 60 60 58 58 57 57 57 57 57 57 58 56 56 57 57 56 56 56 56 60 59 57 58 59 59 61 63 63 62 63 64 64 66 66 68 69 68 68 68 66 66 67 67 65 63 62 63 63 62 60 60 61 61 61 61 62 63 64 65 65
63 63 62 64 67 66 65 64 63 62 61 61 62 62 61 59 58 58 57 56 56 57 56 56 56 55 55 56 57 57 58 59 59 58 58 56 58 58 58 60 62 64 63 62 61 64 67 67 68 68 68 70 70 68 67 67 68 66 64 64 63 63 63 61 60 60 60 60 60 60 60 62 63 64
63 63 62 61 64 65 65 65 64 62 61 61 61 60 61 61 60 58 57 57 57 56 56 56 56 56 55 56 58 58 59 59 58 58 59 58 57 55 54 53 60 65 64 62 62 63 67 68 67 68 69 70 70 70 69 67 66 65 65 64 64 64 64 63 62 61 60 60 60 60 60 60 62 63
61 61 61 61 61 62 62 62 62 63 63 61 61 60 59 59 59 60 60 59 57 56 56 55 56 56 56 57 58 58 59 59 59 60 59 58 56 55 55 55 55 62 65 62 60 60 65 66 65 66 69 70 71 71 69 67 65 65 65 65 64 64 64 64 64 63 61 61 62 62 62 61 62 62
60 60 60 60 61 62 64 64 62 61 61 61 60 59 59 58 58 58 59 60 61 60 57 57 57 57 58 57 58 60 60 61 58 58 57 58 57 57 55 56 57 61 64 61 59 58 63 65 65 65 69 71 72 72 69 68 67 65 65 65 65 65 64 64 64 64 63 62 62 61 61 62 62 62
60 59 59 59 60 61 61 61 61 61 60 60 60 60 59 60 61 59 58 58 57 58 59 59 58 60 60 58 60 61 61 59 57 57 55 57 56 56 56 59 59 62 63 59 58 57 60 63 63 63 67 70 71 72 70 68 67 66 65 65 65 64 64 64 63 63 63 63 62 61 60 60 60 60
59 59 60 59 59 60 60 62 62 60 60 59 59 59 59 60 60 60 61 61 62 61 61 60 60 60 61 61 61 61 61 60 60 59 58 58 58 58 59 59 60 60 62 61 59 54 59 63 61 63 67 69 70 72 70 68 67 66 65 65 65 64 64 64 64 63 63 63 62 61 60 58 58 58
58 58 58 58 58 59 59 60 60 60 60 59 59 59 59 59 59 59 60 59 60 61 62 62 62 62 62 59 60 60 59 59 59 59 59 59 58 56 55 54 58 58 62 62 58 56 57 61 59 61 67 69 69 71 71 68 66 66 65 65 65 64 63 63 64 63 63 62 62 61 59 57 56 57
57 57 57 57 58 59 59 59 57 57 56 58 58 58 57 58 59 59 61 59 58 57 56 55 55 55 55 56 56 55 56 58 58 57 55 55 57 54 53 55 56 57 61 61 61 59 57 60 60 60 62 65 67 69 70 71 67 66 65 65 64 63 62 62 62 62 62 62 62 61 60 57 56 57
55 56 64 63 58 57 57 56 54 55 57 58 58 58 57 57 57 58 60 61 61 58 57 57 57 57 57 57 56 57 58 58 58 57 54 56 56 54 55 54 56 59 61 61 63 58 57 60 61 60 62 65 66 67 69 70 70 66 65 64 63 62 61 60 61 62 62 62 62 60 59 57 57 58
56 55 58 61 57 55 55 51 52 52 54 56 56 56 55 56 56 58 59 57 56 57 57 58 59 59 59 61 61 62 59 58 60 60 58 57 56 54 55 56 56 55 58 63 65 58 59 59 60 61 61 62 66 66 68 69 69 67 66 66 65 62 61 59 59 58 60 61 60 60 58 56 56 59
54 53 54 57 57 52 51 49 48 49 49 53 54 55 55 55 54 57 55 56 55 56 57 57 59 59 59 59 60 60 61 61 62 60 59 58 57 56 55 57 57 55 58 63 65 60 61 62 60 64 64 63 62 64 66 67 68 67 66 65 65 63 61 60 58 57 57 58 58 58 56 54 56 60
53 53 53 54 56 52 50 47 46 46 48 50 54 56 55 55 55 53 52 55 57 57 58 58 57 57 58 58 58 58 58 58 59 59 59 59 59 57 57 56 57 57 61 64 65 63 59 62 62 64 65 65 65 64 64 67 67 66 65 65 65 63 62 61 61 60 57 55 55 55 54 54 55 60
52 52 52 54 53 48 47 47 47 46 48 50 55 55 49 49 50 53 56 56 56 56 55 54 55 55 55 55 55 56 56 57 58 57 58 59 60 60 60 58 57 57 59 65 64 62 61 62 64 64 65 64 64 64 63 64 66 66 66 66 66 64 63 62 62 61 59 59 57 55 56 54 55 57
53 52 52 54 55 47 45 46 48 49 50 53 52 47 48 50 52 54 55 55 54 53 53 53 53 53 53 53 53 54 54 55 56 56 57 59 60 61 62 63 63 62 63 65 66 65 64 64 66 65 65 66 64 63 63 63 64 66 65 65 65 64 64 63 62 61 59 59 59 55 54 53 55 56
51 51 51 52 48 45 43 45 47 48 50 52 47 47 49 51 53 54 53 52 52 53 52 51 51 52 53 53 52 53 54 54 55 56 58 58 59 59 60 62 64 65 64 64 64 64 64 62 64 66 65 64 64 63 61 64 65 66 65 65 66 64 64 64 63 61 60 60 59 57 57 55 56 58
53 52 48 46 46 46 44 46 50 51 52 50 50 50 51 54 53 52 51 50 51 50 50 50 51 51 52 52 53 54 54 56 57 57 57 58 58 59 60 62 63 64 65 66 65 64 63 62 62 64 65 65 64 64 64 63 64 65 66 64 63 63 64 64 63 61 60 60 59 58 58 57 57 59
51 50 50 50 49 50 51 53 54 53 51 52 52 53 53 52 51 51 49 49 49 48 49 50 50 50 51 52 53 55 55 54 54 55 55 55 56 57 58 58 59 62 63 64 64 63 62 62 63 64 65 65 65 64 65 64 64 66 66 65 66 64 64 64 63 62 61 60 59 59 59 60 59 60
49 52 54 53 53 53 54 55 55 53 54 52 50 49 50 50 51 51 50 49 48 49 48 49 50 50 51 52 53 52 52 53 53 55 55 54 54 56 56 57 57 57 59 61 63 63 62 63 63 64 62 63 64 64 65 64 64 65 65 66 65 64 64 64 64 63 62 61 60 60 60 60 60 62
49 51 53 51 54 53 52 50 49 49 49 50 50 49 49 50 51 53 53 53 50 49 49 49 50 50 50 49 50 51 51 52 53 54 54 54 53 55 55 55 55 56 57 58 59 61 62 62 64 65 65 65 63 64 65 64 64 65 66 66 66 66 65 64 64 63 63 62 60 60 61 61 61 61
50 52 50 50 49 49 50 49 47 47 47 48 49 50 49 48 48 48 48 47 46 46 48 48 48 48 48 48 50 50 50 51 52 53 53 54 53 54 54 53 54 55 55 55 57 58 59 59 64 65 62 60 62 65 65 62 63 65 65 66 66 65 66 66 66 64 64 62 61 61 61 62 62 62
48 47 45 46 46 47 46 47 46 46 46 46 45 45 48 47 46 47 47 46 45 47 48 47 47 47 47 47 48 48 49 50 51 52 52 52 53 52 52 52 53 54 56 55 55 56 57 58 60 59 59 58 57 56 58 62 63 63 64 65 65 64 65 66 67 66 64 63 63 62 62 63 64 64
47 45 46 45 46 47 46 47 46 47 46 46 44 44 44 44 46 47 45 45 46 47 47 47 47 47 46 46 47 47 48 49 50 50 52 52 52 52 52 51 52 53 54 55 55 56 56 57 57 59 59 60 59 58 59 56 56 57 61 63 63 63 63 64 66 66 65 65 65 63 63 64 64 65
46 45 45 45 45 46 46 47 48 47 45 45 44 43 44 44 45 45 44 45 44 45 45 45 46 46 46 46 47 47 48 49 49 49 50 50 50 51 51 52 53 53 54 55 55 56 56 56 56 56 59 59 59 57 55 58 56 53 58 61 62 63 64 64 65 65 65 65 66 65 63 63 64 65
46 45 45 45 46 46 45 44 44 46 46 44 44 43 43 43 43 43 44 44 45 46 45 45 44 45 45 46 46 47 47 47 47 48 48 49 49 50 50 51 53 52 53 55 56 56 56 56 56 55 56 59 58 55 53 57 55 54 52 55 59 62 64 65 65 64 65 66 65 66 65 65 65 66
44 44 45 46 46 45 46 46 46 46 45 45 44 44 44 43 42 42 43 43 44 44 44 43 44 45 44 45 45 45 46 47 47 47 48 48 48 48 49 50 50 51 52 54 56 57 56 56 55 55 54 55 54 53 53 54 54 54 51 52 56 59 61 63 63 64 64 65 65 66 66 65 66 67
44 45 47 45 46 45 44 45 45 43 42 42 42 42 42 41 40 41 42 43 42 42 42 43 43 44 44 44 45 45 45 45 45 45 47 47 48 48 48 49 50 50 51 53 54 56 56 55 55 55 55 54 53 53 54 53 52 55 53 49 53 58 58 60 62 63 64 64 65 65 64 64 63 63
47 47 45 46 44 43 44 43 42 42 42 41 40 40 40 40 39 39 40 41 41 42 41 42 44 43 42 44 44 45 46 46 45 45 47 47 48 49 48 49 50 50 50 52 52 54 55 56 56 55 56 56 57 57 57 56 56 57 56 54 49 52 54 56 58 60 62 64 64 63 63 63 63 63
46 44 43 44 42 42 42 41 40 41 40 39 39 43 39 37 37 38 39 40 41 39 40 41 41 41 42 43 44 45 44 45 46 46 48 47 48 49 49 50 49 49 50 50 51 53 54 56 60 59 60 58 59 59 57 55 53 54 55 56 53 51 51 53 54 55 57 59 63 64 63 63 63 62
42 41 41 41 42 41 40 39 39 39 38 38 37 37 37 38 38 41 40 41 38 40 39 40 40 41 42 42 43 45 45 45 45 46 48 47 46 47 48 48 47 49 49 49 50 52 55 58 60 59 58 58 57 55 53 54 54 54 56 57 58 55 53 53 54 55 54 54 58 61 61 62 62 62
44 40 42 44 43 41 40 40 38 38 37 37 36 36 35 35 34 35 35 35 36 37 37 38 39 40 41 42 43 44 45 45 46 46 47 47 48 47 46 47 48 49 49 50 52 54 55 57 58 58 57 56 56 56 53 54 54 55 55 56 56 58 59 57 55 55 55 56 55 53 53 57 60 60
41 42 40 40 40 38 38 37 37 37 37 36 37 35 36 35 34 34 33 34 35 35 37 37 38 39 40 41 43 44 45 46 46 46 46 47 48 49 49 48 49 48 49 50 51 52 54 56 57 58 56 55 55 55 54 54 54 55 55 55 56 56 56 58 59 57 57 56 55 55 55 54 53 53
41 40 41 39 38 39 37 37 38 36 35 35 34 35 36 34 36 34 33 34 34 35 36 36 37 39 40 42 42 42 45 47 45 46 47 48 48 50 50 50 49 48 48 49 50 51 52 54 56 57 56 56 56 55 56 56 55 55 55 55 55 56 56 56 55 55 55 55 55 55 56 56 56 55
MSLP
1017.21 1017.17 1017.17 1017.21 1017.25 1017.29 1017.41 1017.53 1017.61 1017.61 1017.69 1017.65 1017.73 1017.93 1018.05 1018.37 1018.61 1018.53 1018.21 1017.81 1017.49 1016.69 1016.53 1016.73 1015.73 1015.33 1015.29 1015.29 1015.09 1014.97 1014.77 1014.49 1014.25 1014.05 1013.81 1013.53 1013.25 1012.85 1012.53 1012.29 1012.09 1011.97 1011.81 1011.61 1011.41 1011.25 1011.13 1010.97 1010.85 1010.77 1010.73 1010.73 1010.81 1010.85 1010.97 1011.05 1011.13 1011.21 1011.29 1011.37 1011.49 1011.65 1011.85 1012.05 1012.25 1012.49 1012.69 1012.93 1013.13 1013.33 1013.49 1013.61 1013.73 1013.85
1016.73 1016.93 1017.05 1017.13 1017.13 1017.01 1017.17 1017.29 1017.37 1017.45 1017.45 1017.45 1017.57 1017.73 1017.89 1017.97 1018.05 1018.25 1018.29 1017.93 1017.41 1016.93 1016.41 1016.33 1016.05 1015.37 1015.29 1015.13 1014.89 1014.77 1014.53 1014.25 1014.05 1013.85 1013.69 1013.41 1013.13 1012.77 1012.45 1012.09 1011.81 1011.57 1011.41 1011.25 1011.05 1010.85 1010.73 1010.61 1010.49 1010.37 1010.33 1010.29 1010.29 1010.37 1010.45 1010.53 1010.65 1010.73 1010.81 1010.89 1011.01 1011.13 1011.33 1011.53 1011.77 1011.97 1012.17 1012.41 1012.65 1012.85 1013.05 1013.25 1013.33 1013.45
1016.69 1016.85 1016.93 1016.93 1016.93 1016.89 1017.13 1017.25 1017.21 1017.21 1017.13 1017.17 1017.33 1017.49 1017.69 1017.77 1017.69 1017.93 1018.33 1018.33 1017.05 1016.65 1016.65 1016.17 1015.85 1015.69 1015.29 1015.05 1014.77 1014.45 1014.21 1014.01 1013.81 1013.65 1013.45 1013.17 1012.85 1012.57 1012.25 1011.93 1011.57 1011.29 1011.01 1010.81 1010.65 1010.45 1010.29 1010.13 1010.05 1009.97 1009.89 1009.85 1009.85 1009.89 1009.93 1010.01 1010.09 1010.21 1010.33 1010.41 1010.53 1010.65 1010.81 1011.01 1011.25 1011.45 1011.65 1011.89 1012.09 1012.33 1012.57 1012.77 1012.93 1013.05
1016.53 1016.69 1016.77 1016.73 1016.77 1016.85 1016.89 1017.21 1017.45 1017.41 1017.41 1017.33 1017.33 1017.33 1017.37 1017.41 1017.41 1017.65 1017.97 1018.01 1017.25 1016.41 1016.49 1016.25 1015.81 1015.53 1015.33 1015.05 1014.81 1014.37 1013.97 1013.61 1013.53 1013.45 1013.25 1012.93 1012.57 1012.29 1011.97 1011.65 1011.29 1010.93 1010.65 1010.41 1010.21 1010.01 1009.81 1009.65 1009.57 1009.49 1009.45 1009.41 1009.41 1009.45 1009.49 1009.53 1009.61 1009.69 1009.81 1009.93 1010.01 1010.17 1010.33 1010.49 1010.73 1010.93 1011.13 1011.37 1011.57 1011.81 1012.05 1012.29 1012.45 1012.61
1016.41 1016.49 1016.53 1016.45 1016.45 1016.49 1016.85 1017.09 1017.05 1016.93 1016.85 1016.97 1017.09 1017.17 1017.29 1017.25 1017.25 1017.37 1017.61 1017.69 1017.13 1016.25 1016.01 1016.09 1015.81 1015.33 1015.25 1014.93 1014.57 1014.33 1013.97 1013.57 1013.25 1013.09 1012.89 1012.69 1012.45 1012.09 1011.69 1011.25 1010.93 1010.61 1010.29 1010.01 1009.73 1009.49 1009.33 1009.17 1009.05 1009.01 1008.93 1008.89 1008.89 1008.93 1008.97 1009.05 1009.13 1009.21 1009.33 1009.41 1009.53 1009.69 1009.85 1010.01 1010.21 1010.41 1010.61 1010.81 1011.05 1011.29 1011.53 1011.73 1011.97 1012.13
1016.21 1016.25 1016.37 1016.29 1016.33 1016.37 1016.49 1016.57 1016.61 1016.57 1016.69 1016.81 1016.93 1016.97 1017.01 1017.01 1016.93 1016.89 1017.13 1017.21 1017.17 1016.65 1015.97 1015.93 1015.57 1015.45 1015.21 1015.17 1014.37 1014.37 1013.85 1013.45 1013.09 1012.81 1012.49 1012.17 1012.01 1011.77 1011.37 1010.97 1010.49 1010.21 1009.85 1009.61 1009.29 1009.01 1008.77 1008.61 1008.45 1008.41 1008.37 1008.37 1008.37 1008.37 1008.41 1008.49 1008.57 1008.69 1008.81 1008.93 1009.05 1009.21 1009.37 1009.53 1009.69 1009.89 1010.09 1010.25 1010.45 1010.73 1010.97 1011.21 1011.45 1011.65
1015.97 1016.13 1016.13 1016.05 1016.05 1016.17 1016.33 1016.33 1016.29 1016.33 1016.37 1016.41 1016.49 1016.45 1016.57 1016.65 1016.57 1016.61 1016.57 1016.69 1016.77 1016.61 1016.09 1015.69 1015.69 1015.41 1015.09 1015.05 1014.41 1014.09 1013.73 1013.33 1013.09 1012.69 1012.21 1011.85 1011.45 1011.25 1011.01 1010.69 1010.17 1009.73 1009.45 1009.13 1008.85 1008.57 1008.29 1008.05 1007.89 1007.81 1007.77 1007.77 1007.81 1007.81 1007.81 1007.85 1007.97 1008.13 1008.29 1008.45 1008.61 1008.73 1008.89 1009.05 1009.21 1009.41 1009.57 1009.73 1009.93 1010.13 1010.41 1010.65 1010.93 1011.17
1015.77 1015.81 1015.89 1015.77 1015.81 1015.89 1016.09 1016.05 1016.09 1016.05 1016.05 1016.13 1016.21 1016.25 1016.29 1016.33 1016.17 1016.09 1016.21 1016.25 1016.21 1016.17 1016.25 1015.57 1015.57 1015.25 1015.17 1014.61 1014.13 1013.77 1013.49 1013.21 1012.81 1012.57 1011.97 1011.57 1011.25 1010.85 1010.61 1010.33 1009.89 1009.33 1008.97 1008.65 1008.37 1008.09 1007.77 1007.53 1007.33 1007.21 1007.17 1007.21 1007.21 1007.25 1007.25 1007.25 1007.33 1007.49 1007.69 1007.89 1008.09 1008.29 1008.49 1008.61 1008.77 1008.93 1009.09 1009.29 1009.45 1009.61 1009.85 1010.13 1010.37 1010.65
1015.53 1015.57 1015.57 1015.41 1015.53 1015.65 1015.85 1015.81 1015.85 1015.81 1015.89 1015.89 1015.97 1015.97 1015.89 1016.01 1015.85 1015.81 1015.93 1015.93 1015.97 1016.01 1015.93 1015.49 1015.21 1015.09 1014.93 1014.49 1014.05 1013.65 1013.37 1012.73 1012.45 1012.05 1011.81 1011.37 1011.05 1010.57 1010.17 1009.89 1009.41 1008.97 1008.57 1008.21 1007.93 1007.61 1007.25 1006.93 1006.73 1006.61 1006.57 1006.57 1006.61 1006.65 1006.69 1006.73 1006.77 1006.89 1007.09 1007.33 1007.57 1007.81 1008.01 1008.21 1008.33 1008.45 1008.61 1008.81 1009.01 1009.17 1009.33 1009.57 1009.85 1010.13
1015.25 1015.29 1015.21 1015.13 1015.21 1015.37 1015.53 1015.41 1015.37 1015.41 1015.49 1015.57 1015.65 1015.61 1015.53 1015.53 1015.53 1015.61 1015.61 1015.61 1015.61 1015.69 1015.61 1015.57 1015.21 1014.89 1014.77 1014.33 1013.97 1013.37 1013.17 1013.01 1012.33 1011.73 1011.25 1010.93 1010.77 1010.49 1009.89 1009.45 1009.13 1008.65 1008.29 1007.89 1007.45 1007.13 1006.77 1006.37 1006.13 1006.01 1005.93 1005.93 1006.01 1006.05 1006.09 1006.13 1006.21 1006.33 1006.49 1006.73 1007.01 1007.25 1007.45 1007.69 1007.85 1008.01 1008.17 1008.37 1008.57 1008.73 1008.89 1009.05 1009.29 1009.61
1014.97 1014.97 1014.97 1014.89 1014.89 1015.01 1015.01 1015.05 1015.01 1015.01 1015.13 1015.25 1015.21 1015.09 1015.01 1014.97 1015.21 1015.29 1015.25 1015.25 1015.41 1015.49 1015.45 1015.21 1014.97 1014.65 1014.25 1014.17 1013.85 1013.09 1012.89 1012.65 1012.57 1012.17 1011.29 1010.65 1010.37 1010.25 1009.97 1009.17 1008.69 1008.37 1007.89 1007.37 1007.01 1006.69 1006.33 1006.01 1005.69 1005.41 1005.29 1005.29 1005.33 1005.37 1005.45 1005.53 1005.61 1005.73 1005.85 1006.05 1006.33 1006.61 1006.89 1007.13 1007.33 1007.49 1007.69 1007.89 1008.09 1008.33 1008.49 1008.61 1008.81 1009.09
1014.73 1014.73 1014.69 1014.65 1014.57 1014.61 1014.61 1014.69 1014.65 1014.73 1014.85 1014.81 1014.85 1014.65 1014.65 1014.69 1014.85 1014.93 1014.89 1015.01 1015.05 1015.05 1015.01 1014.85 1014.65 1014.41 1014.09 1013.73 1013.37 1012.93 1012.85 1012.69 1012.21 1012.01 1011.69 1010.77 1010.05 1009.77 1009.37 1009.05 1008.65 1007.89 1007.65 1007.13 1006.49 1006.01 1005.73 1005.37 1004.97 1004.73 1004.61 1004.57 1004.61 1004.69 1004.77 1004.85 1004.97 1005.13 1005.33 1005.49 1005.69 1006.01 1006.33 1006.61 1006.81 1007.01 1007.21 1007.41 1007.61 1007.85 1008.09 1008.25 1008.37 1008.57
1014.57 1014.53 1014.45 1014.37 1014.29 1014.17 1014.13 1014.13 1014.17 1014.17 1014.21 1014.37 1014.49 1014.29 1014.29 1014.37 1014.49 1014.53 1014.61 1014.61 1014.61 1014.61 1014.61 1014.49 1014.37 1014.21 1013.89 1013.49 1013.21 1012.97 1012.73 1012.45 1012.13 1011.37 1011.33 1010.61 1009.93 1009.49 1008.93 1008.13 1008.05 1007.77 1007.33 1006.61 1006.17 1005.61 1005.29 1005.01 1004.53 1004.21 1004.13 1003.93 1003.97 1004.01 1004.13 1004.17 1004.29 1004.49 1004.73 1004.97 1005.13 1005.37 1005.69 1006.01 1006.29 1006.49 1006.73 1006.93 1007.17 1007.41 1007.61 1007.81 1007.93 1008.13
1014.29 1014.29 1014.25 1014.13 1014.01 1013.93 1013.85 1013.81 1013.77 1013.81 1013.81 1013.77 1013.81 1013.73 1013.81 1013.97 1014.13 1014.17 1014.29 1014.37 1014.33 1014.33 1014.41 1014.25 1014.09 1013.93 1013.57 1013.13 1012.85 1012.53 1012.13 1011.81 1011.49 1011.37 1011.01 1010.57 1009.41 1009.17 1008.61 1007.73 1007.37 1007.05 1006.89 1006.49 1005.85 1005.05 1004.69 1004.53 1004.05 1003.73 1003.61 1003.25 1003.33 1003.37 1003.53 1003.57 1003.61 1003.77 1003.97 1004.25 1004.49 1004.81 1005.13 1005.49 1005.73 1005.97 1006.21 1006.45 1006.69 1006.93 1007.17 1007.33 1007.45 1007.65
1014.05 1014.01 1014.01 1014.01 1013.85 1013.77 1013.73 1013.57 1013.49 1013.49 1013.53 1013.49 1013.49 1013.45 1013.37 1013.41 1013.61 1013.81 1013.97 1013.93 1013.85 1013.97 1013.85 1013.65 1013.69 1013.49 1013.17 1012.73 1012.37 1012.09 1011.53 1011.37 1011.41 1010.93 1010.53 1010.25 1009.49 1009.09 1008.69 1007.53 1006.25 1006.41 1006.41 1005.97 1005.49 1004.65 1004.17 1004.13 1003.81 1003.25 1002.93 1002.69 1002.65 1002.69 1002.69 1002.73 1002.89 1003.01 1003.25 1003.53 1003.81 1004.09 1004.45 1004.77 1005.05 1005.33 1005.65 1005.93 1006.17 1006.41 1006.65 1006.81 1006.97 1007.17
1014.09 1014.05 1013.93 1013.77 1013.69 1013.65 1013.53 1013.49 1013.45 1013.37 1013.29 1013.25 1013.21 1013.17 1013.13 1013.13 1013.17 1013.13 1013.25 1013.33 1013.45 1013.41 1013.37 1013.33 1013.13 1012.93 1012.65 1012.29 1012.05 1011.65 1011.33 1010.93 1010.69 1010.45 1010.05 1009.77 1009.41 1008.73 1008.25 1007.57 1006.85 1005.57 1005.93 1005.81 1005.37 1004.41 1003.69 1003.89 1003.65 1003.21 1002.49 1002.13 1002.01 1001.97 1001.97 1002.05 1002.21 1002.37 1002.61 1002.85 1003.09 1003.37 1003.69 1003.97 1004.29 1004.61 1004.93 1005.25 1005.53 1005.81 1006.01 1006.25 1006.45 1006.69
1013.93 1013.93 1013.89 1013.73 1013.53 1013.37 1013.29 1013.25 1013.21 1013.17 1013.09 1012.93 1012.89 1012.85 1012.81 1012.73 1012.69 1012.73 1012.77 1012.73 1012.69 1012.65 1012.85 1012.89 1012.61 1012.37 1012.09 1012.01 1011.53 1011.17 1010.93 1010.61 1010.45 1009.89 1009.57 1009.13 1008.73 1008.25 1007.69 1006.93 1006.17 1005.25 1005.29 1005.33 1004.85 1004.17 1003.13 1003.33 1003.09 1002.69 1001.85 1001.61 1001.41 1001.29 1001.29 1001.37 1001.57 1001.73 1001.93 1002.13 1002.33 1002.57 1002.89 1003.21 1003.53 1003.89 1004.21 1004.53 1004.81 1005.13 1005.41 1005.65 1005.89 1006.17
1013.69 1013.73 1013.73 1013.69 1013.45 1013.21 1013.13 1013.05 1013.01 1012.97 1012.93 1012.85 1012.73 1012.61 1012.53 1012.45 1012.33 1012.33 1012.33 1012.29 1012.33 1012.29 1012.29 1012.21 1012.13 1011.57 1011.53 1011.37 1010.93 1010.61 1010.57 1010.49 1010.13 1009.65 1009.13 1008.53 1008.05 1007.49 1006.85 1005.97 1005.41 1004.65 1004.57 1004.81 1004.41 1003.69 1002.61 1002.69 1002.77 1002.37 1001.61 1001.33 1001.01 1000.73 1000.57 1000.69 1000.85 1001.05 1001.25 1001.45 1001.61 1001.85 1002.13 1002.49 1002.85 1003.21 1003.53 1003.85 1004.13 1004.45 1004.77 1005.05 1005.33 1005.61
1013.49 1013.49 1013.45 1013.41 1013.33 1013.13 1012.97 1012.81 1012.73 1012.77 1012.69 1012.65 1012.61 1012.53 1012.37 1012.21 1012.13 1012.05 1011.97 1011.89 1011.81 1011.77 1011.73 1011.69 1011.45 1011.09 1010.89 1010.73 1010.45 1010.25 1010.13 1010.01 1009.53 1009.21 1008.73 1008.01 1007.29 1006.45 1005.57 1005.01 1004.57 1003.97 1003.41 1003.81 1003.93 1003.09 1002.01 1002.13 1002.25 1001.53 1001.13 1000.77 1000.57 1000.17 1000.01 1000.01 1000.13 1000.33 1000.57 1000.77 1000.93 1001.17 1001.45 1001.81 1002.17 1002.57 1002.89 1003.17 1003.49 1003.81 1004.13 1004.45 1004.73 1005.05
1013.29 1013.25 1013.17 1013.17 1013.09 1012.97 1012.85 1012.57 1012.49 1012.53 1012.49 1012.53 1012.53 1012.41 1012.21 1012.05 1011.93 1011.81 1011.57 1011.53 1011.49 1011.41 1011.29 1011.13 1011.01 1010.77 1010.53 1010.37 1010.25 1010.01 1009.89 1009.45 1009.01 1008.57 1008.13 1007.45 1006.69 1005.93 1005.13 1004.37 1003.37 1002.93 1001.97 1002.53 1002.77 1002.37 1001.81 1001.41 1001.81 1001.05 1000.69 1000.49 1000.25 999.81 999.61 999.41 999.49 999.65 999.85 1000.05 1000.29 1000.57 1000.89 1001.21 1001.57 1001.93 1002.29 1002.57 1002.85 1003.17 1003.53 1003.85 1004.17 1004.53
1013.09 1013.05 1013.01 1013.01 1012.93 1012.81 1012.69 1012.49 1012.61 1012.61 1012.69 1012.57 1012.45 1012.37 1012.29 1012.13 1011.97 1011.65 1011.37 1011.29 1011.25 1011.13 1011.01 1010.89 1010.81 1010.69 1010.45 1010.13 1009.81 1009.65 1009.37 1008.97 1008.41 1008.29 1007.97 1006.93 1005.89 1005.33 1004.45 1003.29 1002.73 1001.69 1001.29 1001.21 1001.41 1001.49 1001.29 1000.77 1001.01 1000.77 1000.41 1000.37 1000.05 999.65 999.29 998.97 998.93 999.05 999.17 999.37 999.65 999.97 1000.33 1000.65 1001.01 1001.37 1001.65 1001.93 1002.29 1002.65 1002.97 1003.29 1003.69 1004.05
1012.97 1012.93 1012.85 1012.81 1012.81 1012.77 1012.61 1012.73 1012.69 1012.69 1012.65 1012.53 1012.45 1012.45 1012.41 1012.25 1012.01 1011.65 1011.33 1011.13 1010.97 1010.97 1010.85 1010.69 1010.49 1010.21 1009.93 1009.61 1009.37 1009.05 1008.73 1008.37 1008.05 1008.09 1007.61 1006.25 1005.61 1004.77 1003.93 1002.89 1001.77 1000.81 1000.41 1000.05 1000.25 1000.77 1000.33 1000.29 1000.41 1000.53 1000.05 1000.01 999.45 999.17 998.89 998.61 998.45 998.53 998.69 998.89 999.13 999.49 999.81 1000.17 1000.49 1000.81 1001.05 1001.37 1001.73 1002.09 1002.45 1002.81 1003.33 1004.01
1012.89 1012.85 1012.81 1012.77 1012.81 1012.85 1012.85 1012.81 1012.81 1012.81 1012.77 1012.73 1012.69 1012.69 1012.57 1012.25 1011.97 1011.69 1011.65 1011.65 1011.37 1011.01 1010.73 1010.29 1010.09 1009.69 1009.37 1009.25 1009.09 1008.73 1008.37 1007.93 1007.45 1007.09 1006.65 1005.89 1005.33 1004.25 1003.05 1002.13 1001.17 1000.41 999.41 998.93 999.17 999.93 999.73 999.97 999.61 1000.09 1000.13 999.85 998.81 998.49 998.37 998.25 998.13 998.25 998.45 998.69 998.97 999.13 999.41 999.73 1000.05 1000.29 1000.57 1000.89 1001.29 1001.69 1002.09 1002.57 1003.13 1003.57
1012.77 1012.85 1012.81 1012.73 1012.77 1012.85 1012.89 1012.89 1012.85 1012.85 1012.93 1012.89 1012.81 1012.69 1012.53 1012.37 1012.13 1011.93 1012.01 1011.77 1011.57 1011.17 1010.81 1010.37 1010.01 1009.69 1009.33 1009.09 1008.85 1008.49 1008.01 1007.37 1006.81 1006.37 1005.85 1005.37 1004.69 1003.65 1002.49 1001.37 1000.61 999.97 998.97 998.33 998.41 999.09 998.97 999.01 999.13 999.09 999.13 999.37 999.21 998.21 997.93 997.97 997.85 997.93 998.13 998.49 998.85 998.93 999.37 999.73 1000.05 1000.21 1000.49 1000.81 1001.17 1001.57 1001.97 1002.41 1002.69 1003.17
1012.77 1012.69 1012.69 1012.61 1012.65 1012.81 1012.85 1012.85 1012.73 1012.69 1012.81 1012.93 1012.85 1012.69 1012.69 1012.57 1012.33 1012.25 1012.09 1011.57 1011.25 1010.89 1010.45 1010.21 1009.97 1009.65 1009.33 1009.01 1008.69 1008.21 1007.61 1006.97 1006.33 1005.77 1005.17 1004.53 1003.85 1002.97 1001.81 1000.61 999.73 999.01 998.29 998.09 998.01 998.25 998.49 998.41 998.57 998.45 998.49 998.57 998.21 998.33 998.13 997.93 997.65 997.85 998.01 998.13 998.41 998.73 999.17 999.49 999.73 1000.13 1000.49 1000.85 1001.13 1001.37 1001.69 1002.05 1002.33 1002.53
1012.69 1012.65 1012.65 1012.57 1012.65 1012.73 1012.69 1012.65 1012.65 1012.69 1012.77 1012.81 1012.77 1012.73 1012.73 1012.57 1012.37 1012.17 1011.77 1011.37 1011.09 1010.89 1010.69 1010.41 1010.05 1009.69 1009.37 1009.01 1008.53 1008.01 1007.41 1006.77 1006.09 1005.53 1004.73 1003.81 1002.93 1001.93 1000.93 999.93 999.05 998.49 997.97 997.53 997.61 997.77 997.97 998.01 997.73 997.93 997.93 998.17 998.21 998.33 998.57 998.29 997.93 997.77 997.81 997.93 997.93 998.17 998.49 999.01 999.45 999.81 1000.17 1000.49 1000.85 1001.09 1001.37 1001.77 1002.05 1002.25
1012.53 1012.61 1012.61 1012.61 1012.61 1012.69 1012.65 1012.61 1012.61 1012.69 1012.73 1012.73 1012.77 1012.73 1012.57 1012.37 1012.13 1011.89 1011.65 1011.37 1011.25 1011.05 1010.77 1010.45 1010.13 1009.69 1009.37 1008.93 1008.41 1007.89 1007.33 1006.57 1005.93 1005.29 1004.45 1003.41 1002.33 1001.17 999.81 998.69 998.05 997.77 997.57 997.41 997.25 997.29 997.53 997.53 997.05 997.33 997.61 997.65 998.05 998.21 998.41 998.57 998.49 998.01 997.89 997.89 997.89 998.05 998.25 998.53 998.97 999.25 999.65 1000.09 1000.37 1000.81 1001.25 1001.61 1001.89 1002.17
1012.69 1012.65 1012.65 1012.61 1012.61 1012.61 1012.65 1012.69 1012.65 1012.69 1012.69 1012.69 1012.65 1012.57 1012.45 1012.25 1012.05 1011.89 1011.81 1011.61 1011.41 1011.13 1010.81 1010.49 1010.09 1009.69 1009.25 1008.93 1008.49 1007.93 1007.33 1006.69 1005.89 1005.09 1004.13 1003.09 1002.05 1001.09 999.85 998.45 997.65 997.49 997.49 997.41 997.21 997.17 997.37 997.45 997.29 997.09 997.25 997.53 997.69 997.97 998.33 997.89 997.93 997.89 997.81 997.73 997.73 997.85 998.05 998.33 998.69 999.09 999.53 999.81 1000.29 1000.77 1001.21 1001.77 1002.09 1002.41
1012.69 1012.69 1012.65 1012.57 1012.45 1012.53 1012.69 1012.69 1012.61 1012.61 1012.61 1012.61 1012.57 1012.49 1012.37 1012.17 1012.09 1012.01 1011.93 1011.73 1011.45 1011.21 1010.89 1010.53 1010.13 1009.77 1009.33 1009.01 1008.53 1007.93 1007.25 1006.41 1005.65 1004.97 1004.01 1003.01 1001.93 1000.93 999.93 998.85 997.97 997.65 997.49 997.29 997.21 997.01 997.09 997.25 997.25 997.17 997.17 997.21 997.45 997.37 997.49 997.57 997.85 997.85 997.49 997.77 998.25 998.17 998.05 998.13 998.37 998.81 999.25 999.65 999.93 1000.33 1000.45 1000.77 1001.45 1001.69
1012.77 1012.61 1012.53 1012.49 1012.53 1012.57 1012.61 1012.57 1012.53 1012.57 1012.61 1012.57 1012.53 1012.49 1012.33 1012.25 1012.17 1012.01 1011.89 1011.69 1011.53 1011.33 1011.01 1010.65 1010.29 1009.85 1009.33 1008.81 1008.29 1007.65 1007.05 1006.45 1005.69 1005.05 1004.13 1003.09 1001.93 1000.97 1000.13 999.33 998.65 998.13 997.73 997.41 997.17 997.05 996.89 996.93 997.09 997.13 997.01 996.85 997.01 997.29 997.17 997.25 997.45 997.25 997.21 997.25 997.45 997.81 997.69 997.77 998.17 998.69 999.09 999.49 999.81 999.97 1000.09 1000.29 1000.37 1000.89
1012.69 1012.49 1012.49 1012.57 1012.57 1012.61 1012.61 1012.61 1012.69 1012.69 1012.61 1012.57 1012.57 1012.53 1012.45 1012.29 1012.13 1011.93 1011.81 1011.65 1011.53 1011.33 1011.09 1010.73 1010.29 1009.85 1009.37 1008.77 1008.17 1007.61 1007.09 1006.53 1005.73 1005.09 1004.45 1003.73 1002.77 1001.73 1000.77 999.97 999.21 998.49 998.05 997.65 997.29 997.09 996.89 996.77 996.77 996.93 997.17 996.93 996.93 996.97 996.93 997.01 997.17 997.17 997.17 996.97 997.09 997.49 997.61 997.89 998.17 998.53 998.85 999.17 999.53 999.97 1000.33 1000.61 1000.89 1000.89
1012.89 1012.65 1012.61 1012.73 1012.73 1012.69 1012.77 1012.85 1012.85 1012.81 1012.73 1012.69 1012.65 1012.57 1012.45 1012.33 1012.13 1011.89 1011.69 1011.53 1011.41 1011.29 1011.09 1010.77 1010.33 1009.85 1009.33 1008.85 1008.33 1007.77 1007.25 1006.69 1005.97 1005.13 1004.53 1004.01 1003.13 1002.13 1001.25 1000.37 999.73 999.13 998.37 997.69 997.33 997.01 996.85 996.77 996.53 996.33 996.45 996.61 996.85 996.69 996.65 996.85 996.89 997.01 997.17 996.97 996.89 997.01 997.13 997.57 998.01 998.33 998.61 999.05 999.65 999.97 1000.05 1000.21 1000.41 1000.61
1012.81 1012.69 1012.69 1012.81 1012.89 1012.97 1013.01 1013.01 1013.01 1012.97 1012.89 1012.73 1012.69 1012.61 1012.49 1012.33 1012.21 1012.05 1011.85 1011.69 1011.53 1011.33 1011.01 1010.77 1010.45 1010.01 1009.53 1009.01 1008.45 1008.05 1007.41 1006.69 1006.09 1005.41 1004.77 1004.05 1003.53 1002.45 1001.97 1001.49 1000.49 999.61 999.01 998.49 997.89 997.33 996.97 996.69 996.25 996.01 996.25 996.41 996.25 996.01 996.29 996.81 996.81 996.65 996.89 996.93 996.93 997.13 997.29 997.45 997.73 998.17 998.49 999.01 999.37 999.61 999.97 1000.05 1000.09 1000.17
1012.61 1012.69 1012.73 1012.93 1013.01 1013.13 1013.13 1013.17 1013.13 1013.01 1012.93 1012.85 1012.85 1012.77 1012.57 1012.41 1012.29 1012.09 1012.01 1011.85 1011.69 1011.33 1011.09 1010.85 1010.57 1010.17 1009.77 1009.29 1008.73 1008.21 1007.69 1006.85 1006.05 1005.53 1005.17 1004.49 1003.77 1003.05 1002.29 1001.57 1000.73 1000.09 999.37 998.85 998.41 997.97 997.41 997.01 996.81 996.61 996.45 996.81 996.85 996.65 996.45 996.33 996.65 996.77 996.73 996.85 996.93 997.13 997.13 997.21 997.45 997.77 998.13 998.45 998.89 999.53 999.81 999.89 999.89 999.97
1012.65 1012.69 1012.65 1013.01 1013.17 1013.25 1013.29 1013.17 1013.13 1013.01 1013.05 1012.93 1012.89 1012.73 1012.65 1012.53 1012.41 1012.29 1012.17 1011.93 1011.73 1011.41 1011.17 1010.89 1010.61 1010.33 1009.97 1009.53 1009.01 1008.53 1007.97 1007.33 1006.57 1005.77 1005.13 1004.69 1004.13 1003.45 1002.81 1002.13 1001.29 1000.61 999.85 999.05 998.65 998.21 997.81 997.53 997.21 996.89 996.61 996.37 996.45 996.81 996.89 997.09 997.01 996.97 996.85 996.89 996.97 996.97 997.17 997.25 997.33 997.57 997.85 998.25 998.57 999.05 999.33 999.49 999.61 999.57
1012.77 1012.89 1012.89 1013.09 1013.29 1013.33 1013.33 1013.21 1013.09 1013.05 1013.01 1012.97 1012.89 1012.85 1012.77 1012.69 1012.57 1012.49 1012.29 1012.01 1011.85 1011.53 1011.29 1011.05 1010.73 1010.41 1010.05 1009.61 1009.13 1008.69 1008.17 1007.61 1007.01 1006.41 1005.65 1005.17 1004.77 1004.05 1003.37 1002.81 1002.17 1001.41 1000.57 999.69 999.13 998.57 998.17 997.81 997.57 997.25 996.81 996.45 996.53 996.81 997.25 997.69 997.85 997.93 997.29 997.09 997.01 997.01 997.13 997.21 997.29 997.45 997.77 998.01 998.17 998.53 999.01 999.21 999.21 999.17
1012.89 1013.09 1013.13 1013.17 1013.29 1013.33 1013.37 1013.29 1013.21 1013.05 1013.01 1013.01 1012.93 1012.93 1012.93 1012.85 1012.77 1012.65 1012.37 1012.09 1011.85 1011.61 1011.45 1011.21 1010.97 1010.57 1010.17 1009.69 1009.29 1008.81 1008.37 1007.85 1007.41 1006.81 1006.25 1005.57 1005.09 1004.57 1003.97 1003.25 1002.61 1002.01 1001.21 1000.21 999.49 998.97 998.57 998.25 997.81 997.65 997.13 996.49 996.65 997.25 998.09 997.93 997.89 998.09 998.33 997.61 997.33 997.29 997.25 997.25 997.41 997.61 997.65 997.77 998.09 998.25 998.45 998.73 998.89 998.85
1012.89 1013.09 1013.13 1013.13 1013.25 1013.33 1013.33 1013.25 1013.17 1013.21 1013.21 1013.13 1013.09 1013.05 1013.01 1012.93 1012.85 1012.69 1012.45 1012.25 1012.05 1011.85 1011.57 1011.37 1011.05 1010.69 1010.29 1009.89 1009.53 1009.01 1008.49 1008.05 1007.61 1007.17 1006.65 1006.13 1005.57 1005.01 1004.49 1003.81 1003.09 1002.49 1001.85 1000.81 999.97 999.41 999.05 998.73 998.37 998.21 997.85 997.21 997.45 997.97 998.25 998.45 998.33 998.37 998.53 998.37 997.81 997.73 997.53 997.41 997.53 997.65 997.69 997.65 997.85 997.85 998.05 998.37 998.37 998.33
1012.97 1013.05 1013.01 1013.05 1013.17 1013.29 1013.29 1013.37 1013.33 1013.33 1013.41 1013.33 1013.25 1013.21 1013.21 1013.09 1013.01 1012.81 1012.61 1012.45 1012.25 1012.05 1011.77 1011.45 1011.13 1010.81 1010.49 1010.13 1009.73 1009.29 1008.85 1008.29 1007.81 1007.37 1006.89 1006.41 1006.01 1005.49 1004.85 1004.25 1003.53 1002.93 1002.25 1001.25 1000.41 999.85 999.37 999.13 999.01 998.77 998.45 998.41 998.61 999.01 999.05 999.09 999.53 999.45 999.01 998.53 998.29 997.85 997.69 997.57 997.53 997.49 997.57 997.73 997.73 997.69 997.85 997.89 997.85 997.85
1012.97 1013.01 1013.01 1013.05 1013.17 1013.33 1013.37 1013.41 1013.45 1013.53 1013.49 1013.41 1013.37 1013.29 1013.37 1013.33 1013.21 1013.05 1012.81 1012.65 1012.45 1012.17 1011.93 1011.61 1011.25 1010.93 1010.57 1010.25 1009.89 1009.41 1008.93 1008.49 1008.13 1007.69 1007.17 1006.69 1006.17 1005.65 1005.17 1004.61 1004.17 1003.69 1002.85 1001.89 1001.25 1000.61 1000.17 999.85 999.73 999.65 999.41 999.33 999.33 999.29 999.17 999.13 999.37 999.25 998.89 998.77 998.73 998.45 998.25 997.81 997.41 997.49 997.57 997.37 997.45 997.85 998.09 998.09 998.33 998.33
1012.89 1012.93 1013.01 1013.13 1013.25 1013.37 1013.45 1013.57 1013.65 1013.57 1013.57 1013.61 1013.53 1013.37 1013.45 1013.49 1013.37 1013.17 1012.97 1012.85 1012.73 1012.41 1012.09 1011.73 1011.49 1011.21 1010.85 1010.49 1010.05 1009.61 1009.17 1008.61 1008.17 1007.69 1007.17 1006.77 1006.29 1005.81 1005.29 1004.81 1004.33 1003.93 1003.45 1002.69 1002.13 1001.57 1001.13 1000.81 1000.25 999.73 999.33 999.25 999.17 999.29 999.37 999.17 999.29 999.57 999.57 999.49 999.13 998.77 998.45 998.21 998.09 997.77 997.49 997.53 997.45 997.65 997.93 998.13 998.29 998.45
1012.89 1012.97 1013.13 1013.21 1013.33 1013.65 1013.69 1013.65 1013.73 1013.65 1013.65 1013.69 1013.65 1013.65 1013.65 1013.61 1013.57 1013.41 1013.33 1013.09 1012.93 1012.53 1012.29 1011.93 1011.69 1011.33 1010.93 1010.61 1010.17 1009.69 1009.33 1008.89 1008.41 1007.93 1007.41 1006.93 1006.45 1005.89 1005.53 1005.21 1004.85 1004.37 1003.93 1003.41 1002.81 1002.33 1001.69 1001.09 1000.53 1000.21 1000.05 999.77 999.69 999.69 999.77 999.73 999.85 999.89 999.81 999.65 999.41 999.21 999.05 998.85 998.53 998.33 998.21 998.05 997.65 997.61 997.81 998.01 998.01 998.29
1012.89 1012.97 1013.17 1013.37 1013.57 1013.81 1013.85 1013.81 1013.85 1013.77 1013.73 1013.77 1013.73 1013.73 1013.73 1013.69 1013.69 1013.61 1013.53 1013.37 1013.13 1012.85 1012.53 1012.21 1011.85 1011.53 1011.13 1010.69 1010.25 1009.85 1009.45 1009.01 1008.65 1008.17 1007.65 1007.17 1006.73 1006.29 1005.89 1005.53 1005.21 1004.77 1004.25 1003.65 1003.05 1002.41 1001.89 1001.33 1001.01 1000.73 1000.53 1000.37 1000.57 1000.57 1000.69 1000.53 1000.37 1000.17 1000.01 999.81 999.69 999.53 999.29 999.09 998.97 998.69 998.49 998.57 998.65 998.89 998.85 998.53 998.09 998.13
1012.85 1013.09 1013.29 1013.49 1013.65 1013.89 1013.97 1013.97 1013.89 1013.93 1013.85 1013.85 1013.85 1013.85 1013.77 1013.77 1013.73 1013.73 1013.73 1013.57 1013.37 1013.13 1012.81 1012.41 1012.05 1011.69 1011.29 1010.85 1010.37 1009.89 1009.49 1009.17 1008.85 1008.41 1007.89 1007.45 1006.97 1006.45 1006.05 1005.53 1005.17 1004.85 1004.25 1003.73 1003.21 1002.77 1002.37 1001.89 1001.57 1001.29 1001.05 1001.17 1001.25 1001.17 1001.21 1000.93 1000.69 1000.53 1000.33 1000.09 999.89 999.69 999.65 999.49 999.29 998.93 998.61 998.69 998.93 998.81 998.61 998.69 998.81 998.57
1013.01 1013.13 1013.37 1013.61 1013.85 1013.97 1014.05 1014.01 1013.93 1013.93 1013.93 1013.93 1013.89 1013.89 1013.89 1013.89 1013.81 1013.81 1013.69 1013.61 1013.45 1013.25 1012.93 1012.65 1012.25 1011.81 1011.41 1010.97 1010.57 1010.17 1009.65 1009.25 1008.97 1008.57 1008.09 1007.61 1007.13 1006.61 1006.21 1005.69 1005.29 1005.01 1004.69 1004.33 1003.89 1003.37 1002.97 1002.49 1002.05 1001.73 1001.61 1001.65 1001.61 1001.69 1001.53 1001.25 1001.21 1000.93 1000.61 1000.29 1000.25 1000.17 1000.09 999.97 999.89 999.77 999.65 999.57 999.61 999.45 999.17 999.09 999.29 999.05
Wind_Speed
4 4 5 6 5 5 3 3 4 4 3 3 3 5 5 4 1 2 3 3 3 3 0 2 4 3 5 7 6 6 7 10 13 9 9 10 10 13 19 20 20 20 19 19 21 21 21 21 21 22 23 24 24 24 24 24 24 24 24 23 22 22 22 21 21 21 20 20 21 21 22 22 21 21
5 5 4 4 5 4 5 6 5 5 5 5 5 5 4 5 4 3 3 5 3 5 3 3 4 4 9 8 8 6 8 11 13 9 9 9 10 15 20 20 20 20 20 20 20 21 21 21 21 21 22 23 23 23 23 24 24 25 25 24 23 22 22 22 21 21 21 21 21 21 21 21 21 21
4 5 6 5 6 3 2 2 4 5 6 6 5 4 5 5 5 5 4 4 4 4 3 4 4 7 9 9 9 9 8 9 12 9 9 10 14 20 16 20 20 21 21 20 20 21 22 22 22 22 22 22 22 23 23 24 24 24 25 24 24 24 23 22 22 21 21 21 21 21 21 21 21 21
4 5 6 6 6 3 5 6 3 1 2 1 3 4 5 5 5 5 4 6 10 4 4 6 9 9 9 8 10 11 10 10 14 9 9 11 17 12 10 15 20 20 21 20 20 21 22 23 23 23 23 23 23 22 23 23 24 24 24 24 24 23 23 22 22 22 22 21 21 21 21 21 21 21
5 6 6 6 6 4 3 4 5 6 7 6 5 4 4 6 5 6 6 6 9 7 3 5 7 9 8 9 8 11 10 11 10 10 10 10 10 11 10 11 15 20 20 20 21 21 22 22 23 23 23 24 24 23 23 23 24 24 24 24 23 23 22 22 22 22 22 22 21 21 21 21 21 21
4 4 5 6 4 4 7 6 7 6 6 6 5 6 7 7 6 6 6 7 6 10 5 6 5 7 6 9 9 10 13 12 11 12 12 10 9 10 10 11 11 19 21 21 21 21 21 22 23 23 24 24 24 24 24 24 24 24 24 24 23 23 23 22 22 22 22 22 21 21 21 21 21 21
4 4 5 7 5 5 5 7 7 6 7 6 7 8 7 7 7 6 8 6 7 9 8 5 6 6 6 7 11 11 11 11 11 13 13 11 10 9 11 11 11 17 21 22 21 21 22 22 22 23 23 24 24 24 25 25 24 24 23 23 23 23 23 22 22 22 22 22 22 22 21 21 21 21
4 5 5 6 5 5 6 7 7 7 6 6 7 7 6 7 8 8 7 8 8 6 7 6 5 5 7 9 10 10 10 12 11 10 12 11 12 12 11 12 12 14 20 21 21 21 22 22 22 22 23 23 23 24 24 24 24 23 22 22 22 22 22 21 21 22 22 22 22 22 22 21 21 21
5 5 6 7 5 5 7 7 7 7 7 7 7 8 8 7 8 6 5 7 7 7 9 8 6 6 7 9 10 10 11 11 11 10 11 12 12 13 12 11 11 16 20 20 21 21 22 22 22 23 23 23 23 23 24 24 23 22 22 21 20 20 21 21 21 21 21 21 21 21 21 21 21 21
5 5 6 6 5 5 7 8 8 7 8 7 8 9 9 8 7 6 7 6 7 7 8 8 9 7 8 9 9 10 9 11 13 13 13 11 10 11 12 11 10 10 10 10 11 14 16 18 21 22 22 23 23 23 23 23 23 22 21 21 20 20 20 20 20 20 21 21 21 21 21 21 20 21
4 5 5 5 5 6 7 8 8 8 7 7 9 10 10 8 6 7 8 7 6 7 8 8 8 9 8 8 10 10 8 10 10 13 14 14 10 9 11 14 11 10 12 15 19 18 17 20 17 17 21 23 23 23 22 23 23 22 22 21 20 20 20 20 20 20 21 21 21 21 21 20 20 20
4 5 5 5 6 6 7 7 8 7 8 7 8 9 8 8 6 7 7 6 7 7 8 8 8 7 9 8 8 9 7 8 9 7 9 15 15 14 12 12 13 13 13 13 12 12 14 15 19 22 21 22 23 23 22 24 23 23 22 21 21 20 20 20 20 20 20 21 21 21 20 20 20 20
4 5 5 6 6 7 10 12 11 10 9 7 8 9 7 7 7 7 6 7 7 7 7 8 6 8 8 9 9 9 9 9 10 11 10 14 14 13 14 14 11 12 13 13 12 12 10 11 11 9 9 11 17 19 23 19 24 23 22 22 21 21 21 20 20 21 21 21 21 21 21 21 20 20
4 5 5 6 10 12 12 13 13 13 14 14 11 9 6 7 7 7 7 7 7 7 6 7 8 8 9 10 10 10 10 9 10 11 12 14 15 14 14 15 11 10 10 11 13 12 9 10 11 10 11 10 12 10 12 13 15 19 23 23 22 21 20 20 20 21 21 21 21 21 21 21 20 20
6 4 4 4 7 8 9 9 12 11 12 13 15 16 15 11 8 7 7 7 7 7 8 7 7 8 10 11 10 10 11 9 9 12 12 13 14 14 15 17 13 7 9 10 11 12 8 9 11 11 11 11 10 10 12 17 21 22 21 23 23 22 22 22 22 21 22 22 22 22 22 21 21 21
4 5 6 5 4 4 5 6 6 7 10 12 13 13 13 12 13 13 10 8 7 7 7 8 8 8 9 10 9 10 10 11 11 12 13 13 14 16 15 14 15 11 8 12 13 15 12 9 12 13 11 9 9 11 14 19 21 22 22 22 23 23 23 23 23 23 23 23 22 22 22 21 21 21
4 5 5 6 6 5 8 7 5 5 7 10 11 10 9 10 12 13 15 14 11 7 7 8 9 10 9 10 10 9 11 11 14 14 14 13 14 14 16 16 15 15 10 11 12 15 14 9 10 12 11 11 10 11 16 21 21 22 23 23 23 23 24 23 23 23 24 23 23 23 22 22 21 21
4 4 4 5 6 6 5 5 5 5 6 7 6 6 5 5 7 9 12 14 16 13 10 9 10 11 8 11 11 11 10 12 14 14 16 16 16 17 18 18 18 17 13 13 12 14 15 10 10 13 13 10 9 10 14 19 21 22 22 23 23 23 23 23 23 23 24 24 23 23 22 22 22 21
4 4 4 4 5 6 6 6 6 5 6 5 5 5 6 6 6 5 6 6 5 6 7 9 11 11 10 11 11 11 10 13 14 13 17 19 19 19 19 17 17 17 15 14 12 16 13 8 10 12 11 10 11 10 14 19 20 22 22 22 22 23 23 23 23 24 24 24 23 23 23 22 22 21
4 3 3 3 4 5 6 9 12 9 6 5 5 7 7 6 6 6 7 9 9 9 8 8 9 10 11 12 13 14 14 14 14 13 14 15 16 16 16 15 14 14 12 12 13 13 13 10 10 12 10 10 10 9 9 14 20 21 22 23 23 22 22 23 23 24 24 23 23 23 23 22 22 21
2 2 2 3 4 5 6 8 8 6 3 4 5 5 6 6 7 9 8 7 10 12 14 14 15 16 18 21 21 19 22 18 17 12 13 17 15 16 16 17 14 15 11 9 12 12 13 11 9 11 10 10 10 10 9 9 15 21 22 23 22 22 22 22 23 23 23 23 23 22 22 22 21 21
2 3 6 5 3 4 4 6 6 5 3 4 5 5 6 7 8 8 7 6 6 8 11 14 16 17 18 19 19 19 19 21 18 12 15 17 16 18 16 17 15 14 11 10 10 11 13 9 8 10 9 8 10 10 9 10 11 17 19 22 22 21 22 22 23 22 22 22 22 22 22 21 19 12
3 3 4 6 3 3 2 6 6 5 4 4 4 5 5 6 7 7 6 8 10 10 10 11 9 11 13 11 11 13 19 21 20 14 14 14 15 17 17 16 16 13 11 10 12 11 9 10 10 8 7 9 7 7 9 8 8 7 8 11 14 20 22 22 21 21 21 21 22 21 21 19 15 10
3 3 4 4 2 1 3 4 3 2 2 2 3 3 4 6 8 6 7 9 7 9 9 11 10 11 11 11 10 10 12 13 14 15 14 14 15 17 19 15 14 13 10 3 13 11 9 9 9 10 10 6 5 3 7 7 6 7 7 8 8 13 15 14 13 16 16 17 18 17 17 17 17 11
4 4 4 3 2 3 2 2 3 1 1 2 2 3 3 4 8 10 8 9 11 9 10 9 9 9 9 9 9 10 11 12 12 14 16 15 16 17 17 17 14 11 10 6 13 11 9 9 9 8 9 9 5 2 2 3 5 5 7 9 10 6 8 8 7 8 10 14 15 16 16 18 20 16
4 4 3 3 3 3 2 1 1 2 2 3 2 3 6 9 10 8 7 7 7 7 8 8 8 8 8 9 9 10 11 12 13 15 16 17 17 17 17 14 11 9 9 8 13 10 9 8 9 7 5 6 6 4 5 4 4 4 5 7 7 8 10 9 8 8 8 9 10 12 14 19 18 19
4 2 2 2 3 2 1 3 2 1 3 2 2 6 8 9 10 9 6 7 7 7 7 7 8 8 8 9 10 11 12 13 15 15 16 17 18 18 19 17 11 9 7 4 9 10 6 5 4 9 8 7 7 5 6 5 3 2 4 6 6 6 7 8 10 9 9 10 8 13 13 15 18 18
3 2 2 3 4 2 4 5 3 2 3 3 6 8 9 9 7 5 6 5 6 7 7 7 8 9 9 9 10 11 12 14 15 16 16 16 18 17 17 17 9 7 7 6 5 3 2 4 3 1 3 4 6 6 6 5 4 8 7 5 5 7 7 8 7 8 7 7 9 10 9 9 9 11
1 4 6 6 1 5 6 4 2 2 2 6 7 8 9 8 4 5 4 5 6 6 7 8 8 8 9 9 10 11 12 14 13 12 14 15 16 15 14 15 9 5 4 4 6 8 5 3 4 5 4 5 6 4 6 6 5 7 8 7 2 3 6 7 7 9 8 8 11 12 13 13 12 11
6 5 3 5 7 6 5 1 1 1 2 4 6 7 7 4 4 4 4 5 5 6 7 8 9 9 10 10 11 12 11 11 12 13 14 15 16 16 16 12 11 8 6 6 6 7 8 7 6 6 6 4 6 6 6 6 6 7 7 9 6 5 6 7 7 7 8 10 11 11 10 9 14 14
3 2 1 2 3 4 4 4 3 3 4 3 3 4 4 4 4 4 4 4 5 5 7 8 8 9 9 9 10 11 12 12 12 12 12 12 13 14 14 11 10 11 9 7 5 5 6 8 8 7 8 7 5 8 7 5 6 4 5 6 9 7 6 6 6 7 7 7 6 6 6 7 7 10
2 2 2 3 2 1 2 1 2 2 2 2 3 4 4 4 5 6 8 6 4 4 5 6 7 8 8 10 10 11 11 11 11 12 12 11 13 14 14 13 12 10 11 10 9 9 8 6 6 7 7 7 8 6 6 6 6 6 7 6 5 3 5 8 8 8 8 7 6 6 7 8 9 8
1 0 2 2 2 2 1 2 2 2 2 2 3 4 5 4 5 4 5 6 6 6 6 7 8 8 8 9 9 10 10 11 11 11 12 12 12 13 11 11 12 12 11 11 10 10 9 9 6 1 3 4 4 6 8 6 5 3 4 3 5 5 6 7 7 7 9 9 7 6 6 7 7 7
2 3 3 3 2 1 2 1 2 3 4 4 4 4 4 4 5 5 5 5 6 6 6 6 7 8 8 9 10 10 10 12 12 11 11 11 12 11 12 13 13 12 10 10 10 9 9 8 6 4 7 7 9 10 5 3 5 4 4 5 6 5 4 7 8 9 10 8 7 6 6 7 8 9
2 2 3 2 2 2 1 2 2 3 4 3 4 5 5 5 5 5 5 5 6 5 6 6 6 7 7 8 9 9 10 11 12 12 11 10 12 12 12 13 13 14 12 11 12 11 8 8 7 3 3 4 5 7 15 11 5 4 2 2 2 4 4 3 4 8 9 7 7 8 7 6 7 8
3 3 3 2 2 1 2 2 2 2 3 3 4 4 5 5 5 5 6 6 6 5 6 6 7 7 8 8 8 9 9 10 10 11 12 11 11 11 11 11 11 12 12 11 11 10 9 8 6 4 4 2 2 3 6 13 13 4 3 2 2 1 2 4 4 5 6 7 7 7 9 10 9 8
3 2 2 1 0 1 1 2 3 3 3 3 3 4 4 5 5 5 5 5 5 5 6 6 6 7 7 8 8 8 9 9 10 10 11 11 10 10 10 10 10 11 12 12 10 10 10 9 9 8 5 3 4 5 4 3 9 13 5 2 2 4 2 3 5 5 5 6 6 7 7 7 7 7
3 2 1 0 0 1 2 2 2 2 3 3 3 3 4 4 5 5 5 5 6 5 6 6 6 7 7 7 8 9 9 8 8 9 9 10 11 11 10 10 11 10 11 11 10 10 10 9 10 9 8 5 7 5 4 6 5 11 14 3 1 2 3 1 4 5 4 5 7 7 6 6 7 7
2 2 0 0 0 1 2 2 2 2 2 2 2 3 4 4 5 5 5 5 5 5 5 6 6 7 7 7 7 8 8 9 9 10 10 10 9 10 11 10 11 11 10 11 11 11 11 11 12 11 10 9 8 5 5 6 7 4 10 17 4 1 1 1 1 2 3 4 4 2 1 1 4 4
1 1 1 0 1 1 1 1 2 1 1 2 2 2 3 4 4 5 5 5 5 5 5 5 6 7 7 7 8 7 7 8 8 9 9 9 10 9 9 9 8 9 10 10 11 11 12 12 11 9 7 6 3 2 4 7 5 4 10 15 17 9 4 2 2 4 2 3 3 4 4 3 3 2
0 0 1 1 3 2 2 2 1 1 2 2 2 3 3 3 4 4 4 5 5 5 5 6 6 6 7 7 8 7 8 8 8 9 9 9 9 9 11 11 9 9 9 9 10 10 11 10 14 18 12 8 6 1 1 3 11 9 9 8 13 17 16 10 3 1 1 1 3 6 6 6 5 4
3 2 3 4 4 2 3 2 1 1 2 2 2 3 3 3 3 6 4 5 5 5 5 6 6 6 7 7 7 7 7 8 8 9 9 9 10 10 10 9 9 9 8 8 8 8 8 8 9 9 9 9 9 9 11 9 8 7 6 4 6 10 16 18 17 16 10 6 3 2 2 2 3 5
3 4 4 3 3 3 2 2 1 1 2 2 2 3 3 3 4 5 5 6 5 6 6 6 6 6 7 7 7 7 7 8 8 8 9 9 9 9 10 9 8 7 7 7 6 6 8 9 8 8 8 9 9 8 9 9 8 7 7 7 7 6 7 12 15 19 22 21 16 10 4 1 1 5
3 5 4 4 5 3 2 2 1 1 1 2 2 2 3 3 4 4 4 5 5 6 6 6 6 7 7 7 7 7 7 7 7 8 8 8 8 8 8 9 8 8 8 8 8 8 7 7 7 7 8 9 7 8 8 8 8 8 7 7 6 8 9 8 8 11 17 21 21 19 20 17 8 7
3 5 5 5 4 3 2 1 1 1 2 2 2 3 2 2 2 3 4 4 5 5 6 6 6 7 7 7 7 8 8 8 7 7 7 7 8 8 8 8 9 9 9 8 8 8 7 6 7 7 7 7 7 7 8 8 7 7 8 10 11 9 8 8 10 11 11 12 16 19 20 20 17 14
Wind_Direction
237 229 209 208 211 208 189 184 188 186 178 165 158 170 179 164 184 298 291 276 277 294 219 303 292 286 314 314 307 304 300 303 308 307 306 302 302 297 299 297 294 288 281 274 269 265 263 260 258 255 253 252 250 248 246 244 243 242 240 237 235 235 234 234 233 231 230 229 229 230 230 230 230 230
216 220 230 222 225 205 179 191 190 181 185 174 184 187 190 167 182 212 269 285 215 277 281 223 278 311 313 313 308 304 299 298 305 297 297 297 296 295 296 296 293 290 283 275 269 266 263 261 260 258 255 253 251 248 246 243 241 240 239 237 234 233 233 234 234 232 229 228 227 229 230 230 231 231
209 220 229 226 233 213 218 219 196 198 187 186 184 183 186 199 192 197 227 289 258 197 273 280 274 294 302 308 306 307 301 298 300 298 295 295 289 294 295 292 291 288 283 275 267 263 262 261 260 259 256 254 251 249 247 245 243 241 239 237 235 234 232 232 233 233 232 229 227 227 229 230 230 231
220 224 231 229 223 175 188 208 243 300 320 213 201 196 196 209 199 187 213 239 270 236 254 286 292 291 295 299 301 301 303 300 301 295 291 289 294 294 288 285 285 285 284 278 270 263 261 259 258 256 255 254 251 249 247 246 245 242 240 238 235 233 231 230 230 230 230 229 228 227 227 229 229 230
228 227 230 227 215 197 165 174 188 201 208 199 204 206 214 222 205 189 209 239 267 282 223 252 273 289 302 300 293 297 297 300 300 294 289 286 288 289 286 286 282 284 282 279 272 266 261 258 256 254 253 252 251 249 246 245 244 243 241 240 238 235 232 229 228 228 228 227 227 226 226 227 229 229
228 225 232 238 207 167 196 194 207 209 203 206 205 212 211 221 221 200 198 230 244 274 288 279 268 276 279 287 292 295 300 299 300 298 296 290 282 284 285 286 286 283 283 280 274 267 262 258 255 253 251 251 250 249 247 245 242 241 241 239 238 236 234 231 228 227 226 225 225 225 225 226 226 228
245 234 231 238 214 190 199 214 219 209 213 210 211 221 214 224 228 214 206 208 239 252 267 254 277 277 282 274 290 291 287 287 291 294 293 294 293 286 285 284 284 284 283 281 277 270 264 259 255 252 250 249 249 248 248 246 243 240 238 236 235 235 234 232 229 228 227 225 224 224 224 225 225 226
241 237 236 242 221 204 216 227 229 228 226 220 220 230 226 220 231 225 209 213 229 244 260 259 251 271 287 285 283 282 281 287 289 283 287 289 289 288 286 282 281 281 280 278 278 275 268 261 256 252 249 248 247 247 246 246 244 240 237 233 231 231 231 230 229 228 228 226 225 223 222 223 224 224
237 231 226 237 217 204 222 238 234 231 228 227 219 232 233 224 235 233 225 230 225 239 248 268 265 270 274 275 281 284 291 293 288 287 285 287 291 290 284 281 278 279 280 282 283 280 272 263 256 251 249 246 245 244 244 244 243 240 236 232 229 228 228 228 228 228 228 227 225 223 221 221 222 222
236 232 235 240 222 207 216 236 239 232 231 225 228 237 241 230 233 233 239 238 238 239 255 263 279 270 274 281 277 281 283 291 298 297 292 290 286 287 289 282 285 284 281 284 283 281 278 266 257 253 248 247 244 243 243 242 241 238 235 231 229 227 226 226 226 226 227 227 226 223 221 219 219 220
237 235 243 251 243 232 228 235 241 237 231 223 230 235 241 241 228 238 241 239 243 248 256 260 260 274 269 267 281 278 280 281 280 294 299 296 292 284 287 290 288 283 280 274 271 271 273 273 268 251 245 244 243 241 241 240 237 235 231 229 226 225 224 223 223 223 223 224 224 223 220 217 216 217
247 247 247 248 248 240 239 236 243 233 235 230 238 240 239 243 233 238 246 241 239 243 247 255 269 269 279 278 267 279 282 284 286 271 288 296 302 298 288 278 287 288 283 280 281 272 269 267 260 254 247 240 238 238 238 237 235 232 229 226 224 222 221 222 222 222 222 222 222 222 220 216 214 214
244 251 250 252 252 244 244 240 239 236 229 227 235 245 230 236 232 238 233 236 244 249 250 257 260 270 274 274 282 286 285 283 285 296 293 288 288 289 289 286 275 276 281 280 274 274 268 269 263 253 243 237 234 236 233 236 234 230 225 223 222 221 219 220 221 222 221 221 220 219 219 216 213 212
253 247 249 258 257 257 255 255 252 248 245 241 236 243 234 230 230 229 229 234 237 245 250 251 262 272 274 277 277 281 278 282 288 288 288 289 292 291 285 281 275 272 267 274 274 271 267 263 263 251 245 242 228 229 226 226 227 226 222 220 220 220 220 219 219 220 221 220 219 217 216 215 212 210
278 280 263 258 267 268 268 268 266 260 254 256 253 252 251 242 223 221 226 229 226 226 236 251 258 259 269 273 276 279 288 285 282 288 288 288 292 293 295 296 293 248 253 262 271 276 271 276 273 259 244 238 227 221 224 219 220 222 218 216 216 216 217 217 216 217 219 219 217 215 214 213 211 209
259 270 280 279 271 264 258 262 273 271 262 257 256 255 253 252 240 232 224 231 235 226 233 246 251 258 262 273 278 282 288 292 292 288 290 288 288 290 286 283 284 287 273 279 279 276 274 264 267 273 264 249 236 226 222 217 216 216 216 213 213 214 215 215 215 215 215 216 215 214 212 211 209 208
251 259 270 283 284 273 266 268 268 269 278 275 269 267 260 245 237 234 234 232 234 242 241 248 259 256 265 273 275 276 285 292 294 294 291 288 284 281 280 278 279 278 271 267 267 273 272 263 266 265 255 247 238 231 223 220 215 213 212 213 212 212 212 213 213 213 213 213 212 212 210 208 207 207
255 254 254 269 281 284 282 273 271 273 267 271 282 282 269 260 256 246 241 241 239 237 239 244 252 262 256 264 273 279 285 290 288 291 290 290 288 284 278 277 275 275 268 259 267 268 266 254 259 261 268 269 258 240 228 219 217 214 213 212 213 212 211 211 212 212 212 211 209 208 207 206 205 205
247 248 243 248 260 274 282 274 264 263 265 268 270 273 275 270 263 261 268 265 266 256 238 230 239 255 263 266 273 278 281 278 278 280 285 286 285 283 280 274 265 265 256 247 245 256 265 248 248 253 255 250 247 242 233 220 215 214 213 213 212 211 210 210 210 210 210 209 207 205 204 203 203 202
233 232 241 255 265 266 269 273 273 266 266 266 269 271 275 283 282 274 261 269 272 268 268 268 269 270 274 280 281 282 282 283 283 282 283 284 282 283 284 279 276 262 253 218 226 244 253 244 242 256 256 260 259 248 239 221 214 213 213 212 211 210 209 209 209 208 208 207 205 203 202 201 200 200
238 239 242 243 262 270 268 289 321 321 293 265 265 272 282 287 293 290 294 284 272 270 274 277 279 279 279 278 278 277 277 281 283 290 291 290 293 293 292 286 279 269 258 223 210 229 247 240 229 250 246 246 255 253 239 227 214 213 213 211 210 208 208 208 207 206 205 204 203 202 200 198 198 197
271 265 283 293 276 275 286 1 18 5 323 293 286 299 300 295 291 291 297 299 300 300 292 287 284 280 279 281 284 286 287 287 289 293 292 292 296 292 288 287 283 278 261 237 193 216 231 243 225 239 250 249 240 241 241 227 217 211 212 209 206 206 205 205 206 204 202 201 202 201 198 196 190 183
274 289 296 289 299 298 359 21 3 352 333 295 307 304 296 290 291 300 335 325 313 311 310 303 302 295 292 292 291 290 290 287 288 288 286 292 293 293 291 284 284 278 261 232 181 210 223 226 226 213 235 234 236 216 225 222 210 195 198 208 210 208 205 205 203 202 201 200 200 198 194 186 171 168
296 274 280 286 322 73 360 340 332 303 298 268 301 308 308 311 300 329 318 305 299 294 292 291 292 290 293 294 291 292 289 288 290 295 294 293 292 291 292 284 276 269 265 206 181 200 223 216 229 202 224 228 237 224 202 219 201 191 184 187 196 208 206 205 208 206 204 201 197 193 185 174 173 161
264 277 274 285 12 58 345 345 319 291 248 245 285 308 319 302 301 306 296 297 289 288 294 298 300 298 298 299 299 297 297 296 300 304 300 299 295 296 294 290 279 266 247 220 184 196 215 210 222 208 208 218 239 252 325 262 208 184 187 184 192 175 169 189 186 186 193 193 191 184 176 175 178 177
252 249 270 294 49 46 8 313 317 302 300 261 293 320 297 292 296 297 290 294 302 305 306 302 300 302 303 305 306 304 303 304 306 307 304 303 303 301 297 287 270 259 243 215 202 206 208 216 212 207 204 200 229 177 236 250 252 222 180 196 188 171 174 171 173 180 178 177 174 178 180 179 183 187
244 267 280 295 22 51 183 203 202 288 284 302 328 312 315 313 310 308 312 316 313 306 305 304 305 308 310 314 315 314 313 311 309 307 304 304 309 311 309 306 274 252 268 256 215 228 236 249 197 201 209 204 222 186 203 212 239 213 173 184 168 159 173 165 177 177 148 166 170 173 172 180 184 187
255 273 298 303 327 149 183 199 201 238 327 342 323 330 325 320 318 324 318 317 311 312 308 315 318 318 317 315 313 314 312 306 306 305 305 311 314 316 318 317 294 262 258 275 288 224 239 283 311 223 223 232 219 199 198 217 217 199 187 174 178 165 164 172 173 158 166 149 130 150 140 155 183 181
319 313 302 297 212 149 175 196 261 296 350 348 337 329 325 327 327 322 317 314 318 321 327 323 319 314 315 312 304 302 301 302 304 307 313 315 317 320 321 331 324 296 282 271 266 276 259 250 280 299 253 216 232 222 202 200 196 217 182 142 128 182 163 171 160 157 154 155 156 161 175 161 170 184
323 313 326 109 129 141 159 155 54 25 352 332 331 332 337 331 316 315 313 318 327 328 323 323 321 316 313 314 310 306 309 313 318 322 323 326 329 332 334 334 348 339 317 276 257 257 274 276 269 273 273 229 208 221 218 200 211 215 184 175 154 146 188 152 147 155 150 162 173 180 182 176 179 168
337 327 70 141 116 116 104 76 48 11 357 344 339 337 331 322 321 312 319 323 328 326 322 318 315 312 308 304 315 326 327 324 319 324 326 326 322 327 332 328 340 348 345 341 315 279 253 256 249 241 256 267 245 224 217 198 211 192 186 163 152 176 171 152 151 147 165 157 147 169 165 181 184 188
314 326 99 134 142 110 68 41 23 349 348 347 338 327 324 324 324 332 335 338 331 321 304 300 302 306 317 326 326 325 325 321 320 326 329 332 328 332 335 339 342 341 346 352 351 355 353 320 277 234 218 234 244 227 204 191 189 181 198 183 166 107 130 159 158 160 160 143 144 174 185 181 182 183
319 105 71 64 61 42 27 13 357 338 331 342 338 330 332 333 326 327 337 345 342 327 327 327 324 322 325 323 325 325 323 326 325 329 330 334 333 330 338 334 338 344 351 350 349 348 349 336 297 239 64 24 291 204 176 177 209 204 185 175 153 129 153 159 151 149 145 149 172 166 178 193 192 184
74 81 92 61 45 44 11 17 3 1 352 344 332 331 333 336 333 338 338 335 331 328 328 322 322 325 326 326 329 329 328 324 327 331 337 333 333 336 340 341 344 340 340 354 353 350 344 344 355 45 93 85 64 43 34 115 145 177 177 171 163 152 146 154 160 154 162 173 160 158 179 190 194 195
71 88 80 45 37 22 5 21 357 3 347 345 340 341 338 333 336 338 332 335 330 332 329 327 324 321 325 325 327 329 329 326 326 329 336 338 340 342 342 341 343 341 338 354 359 353 345 348 351 322 149 135 81 50 55 45 48 24 348 107 168 154 152 133 144 160 163 162 161 177 187 193 193 192
68 76 90 70 41 19 16 5 347 344 337 339 340 333 338 337 335 337 331 328 329 326 333 333 331 328 327 328 328 327 326 328 328 332 335 344 340 338 340 342 337 337 337 346 354 354 348 353 352 344 273 192 92 58 8 47 51 13 25 29 19 69 112 143 158 156 171 173 178 180 184 191 201 189
100 93 88 93 17 360 324 314 313 326 336 331 339 342 334 329 326 321 316 323 329 337 335 329 322 325 325 328 328 328 328 333 335 334 336 337 339 339 341 337 337 339 339 343 346 355 358 359 359 8 317 127 131 109 57 317 42 44 21 348 342 8 30 160 161 181 193 178 183 192 198 195 201 193
131 140 140 148 266 288 304 319 324 353 345 347 349 342 334 320 320 321 322 340 342 338 332 330 327 327 328 330 332 331 330 329 329 333 336 339 341 342 341 337 337 341 337 336 348 1 3 4 13 11 5 34 80 52 41 9 5 8 6 323 263 351 334 332 159 190 187 194 201 202 196 205 203 192
148 171 170 170 308 315 314 330 4 14 351 350 353 346 330 328 328 332 335 340 335 334 331 332 336 333 331 330 329 329 328 333 338 338 336 337 338 336 339 340 339 340 335 345 350 1 6 12 12 6 16 26 52 62 73 82 51 1 18 29 358 231 93 290 192 156 181 195 203 170 144 48 56 128
190 198 191 168 5 16 71 49 48 15 22 357 323 335 354 339 335 331 334 339 337 335 332 333 336 335 334 333 330 326 325 332 332 330 330 331 333 336 339 339 339 338 335 349 356 358 4 7 12 7 9 11 27 53 91 100 118 67 42 29 25 34 345 263 173 168 206 193 153 175 178 141 145 125
122 97 336 134 103 76 89 67 35 31 18 352 346 355 9 342 338 337 333 342 335 334 340 340 339 336 331 329 330 332 333 333 335 333 334 334 334 338 339 341 346 348 343 347 351 354 357 348 358 8 20 21 16 299 275 72 56 42 42 35 27 34 37 39 23 344 102 328 207 187 180 178 167 150
136 114 95 99 102 102 97 89 25 46 18 359 1 7 352 355 350 351 346 346 340 339 340 341 338 334 332 331 331 334 337 337 337 335 338 339 338 340 345 353 347 342 342 339 336 334 325 337 356 12 15 25 25 30 42 42 56 46 40 27 34 41 47 49 60 66 64 46 25 94 117 150 147 172
122 128 116 111 111 107 101 90 54 41 15 5 12 5 4 358 352 359 356 349 342 344 342 337 334 334 331 330 332 331 335 340 339 335 336 340 343 342 342 341 337 331 331 331 328 336 344 346 3 11 21 32 27 27 41 37 36 39 36 32 32 24 35 46 51 60 64 62 66 73 52 326 231 193
138 121 117 112 111 112 107 105 77 37 32 13 16 5 12 8 355 352 342 340 343 340 329 332 333 335 333 330 330 332 342 341 336 337 339 338 338 340 339 336 343 341 345 354 349 358 352 353 357 3 25 28 17 23 23 23 32 29 33 37 34 32 36 28 23 41 53 49 41 45 49 50 52 77
131 127 124 119 119 120 119 106 80 64 46 26 22 16 24 4 357 344 337 343 343 338 336 336 333 331 332 333 339 340 336 338 341 338 338 341 344 346 346 344 351 351 359 352 355 360 353 353 3 8 22 22 24 22 11 25 27 26 28 33 30 27 32 26 33 39 44 51 25 32 46 48 44 65